TimeEST,TemperatureF,Dew PointF,Humidity,Sea Level PressureIn,VisibilityMPH,Wind Direction,Wind SpeedMPH,Gust SpeedMPH,PrecipitationIn,Events,Conditions,WindDirDegrees,DateUTC
12:35 AM,53.6,51.8,94,30.48,-9999.0,SW,4.6,-,N/A,,Unknown,220,2012-11-12 05:35:00
12:55 AM,53.6,51.8,94,30.48,-9999.0,SW,5.8,-,N/A,,Unknown,230,2012-11-12 05:55:00
1:15 AM,53.6,51.8,94,30.49,-9999.0,SW,5.8,-,N/A,,Unknown,230,2012-11-12 06:15:00
1:35 AM,53.6,51.8,94,30.49,-9999.0,SW,4.6,-,N/A,,Unknown,220,2012-11-12 06:35:00
1:55 AM,53.6,51.8,94,30.48,-9999.0,SW,4.6,-,N/A,,Unknown,220,2012-11-12 06:55:00
2:15 AM,53.6,51.8,94,30.48,-9999.0,SSW,3.5,-,N/A,,Unknown,210,2012-11-12 07:15:00
2:35 AM,51.8,51.8,100,30.48,-9999.0,SSW,3.5,-,N/A,,Unknown,210,2012-11-12 07:35:00
2:55 AM,51.8,51.8,100,30.47,-9999.0,South,3.5,-,N/A,,Unknown,190,2012-11-12 07:55:00
3:15 AM,51.8,51.8,100,30.47,-9999.0,Calm,Calm,-,N/A,,Unknown,0,2012-11-12 08:15:00
3:35 AM,51.8,51.8,100,30.47,-9999.0,SSW,3.5,-,N/A,,Unknown,200,2012-11-12 08:35:00
3:55 AM,50.0,50.0,100,30.47,-9999.0,South,3.5,-,N/A,,Unknown,180,2012-11-12 08:55:00
4:15 AM,51.8,51.8,100,30.47,-9999.0,Calm,Calm,-,N/A,,Unknown,0,2012-11-12 09:15:00
4:35 AM,48.2,48.2,100,30.47,-9999.0,Calm,Calm,-,N/A,,Unknown,0,2012-11-12 09:35:00
4:55 AM,50.0,50.0,100,30.47,-9999.0,South,3.5,-,N/A,,Unknown,170,2012-11-12 09:55:00
5:35 AM,51.8,51.8,100,30.48,-9999.0,SSW,4.6,-,N/A,,Overcast,210,2012-11-12 10:35:00
5:55 AM,53.6,53.6,100,30.48,-9999.0,SW,4.6,-,N/A,,Overcast,220,2012-11-12 10:55:00
6:15 AM,53.6,53.6,100,30.48,-9999.0,SW,5.8,-,N/A,,Overcast,230,2012-11-12 11:15:00
6:35 AM,53.6,53.6,100,30.48,-9999.0,SW,5.8,-,N/A,,Overcast,220,2012-11-12 11:35:00
6:55 AM,53.6,53.6,100,30.48,-9999.0,SSW,5.8,-,N/A,,Overcast,200,2012-11-12 11:55:00
7:15 AM,53.6,53.6,100,30.48,-9999.0,SW,5.8,-,N/A,,Overcast,220,2012-11-12 12:15:00
7:35 AM,53.6,53.6,100,30.48,-9999.0,SSW,6.9,-,N/A,,Overcast,200,2012-11-12 12:35:00
7:55 AM,53.6,53.6,100,30.47,-9999.0,SSW,5.8,-,N/A,,Overcast,200,2012-11-12 12:55:00
8:15 AM,55.4,55.4,100,30.48,-9999.0,SSW,8.1,-,N/A,,Overcast,200,2012-11-12 13:15:00
8:35 AM,55.4,55.4,100,30.47,-9999.0,SW,8.1,-,N/A,,Overcast,220,2012-11-12 13:35:00
8:55 AM,55.4,55.4,100,30.47,-9999.0,South,5.8,-,N/A,,Mostly Cloudy,190,2012-11-12 13:55:00
9:15 AM,57.2,55.4,94,30.47,-9999.0,SW,8.1,-,N/A,,Unknown,230,2012-11-12 14:15:00
9:35 AM,60.8,55.4,82,30.46,-9999.0,SSW,6.9,-,N/A,,Clear,200,2012-11-12 14:35:00
9:55 AM,62.6,55.4,77,30.46,-9999.0,SSW,10.4,-,N/A,,Partly Cloudy,200,2012-11-12 14:55:00
10:15 AM,62.6,55.4,77,30.45,-9999.0,South,13.8,18.4,N/A,,Scattered Clouds,190,2012-11-12 15:15:00
10:35 AM,62.6,55.4,77,30.45,-9999.0,South,9.2,16.1,N/A,,Mostly Cloudy,190,2012-11-12 15:35:00
10:55 AM,62.6,55.4,77,30.44,-9999.0,SW,4.6,-,N/A,,Mostly Cloudy,220,2012-11-12 15:55:00
11:15 AM,64.4,55.4,73,30.43,-9999.0,SSW,9.2,19.6,N/A,,Mostly Cloudy,200,2012-11-12 16:15:00
11:35 AM,64.4,55.4,73,30.42,-9999.0,SW,8.1,-,N/A,,Mostly Cloudy,220,2012-11-12 16:35:00
11:55 AM,64.4,55.4,73,30.42,-9999.0,SSW,10.4,16.1,N/A,,Mostly Cloudy,200,2012-11-12 16:55:00
12:35 PM,64.4,55.4,73,30.41,-9999.0,SSW,9.2,19.6,N/A,,Mostly Cloudy,200,2012-11-12 17:35:00
12:55 PM,64.4,55.4,73,30.40,-9999.0,South,9.2,-,N/A,,Mostly Cloudy,190,2012-11-12 17:55:00
1:15 PM,64.4,55.4,73,30.40,-9999.0,South,10.4,16.1,N/A,,Overcast,170,2012-11-12 18:15:00
1:35 PM,64.4,55.4,73,30.40,-9999.0,South,11.5,17.3,N/A,,Mostly Cloudy,180,2012-11-12 18:35:00
1:55 PM,64.4,55.4,73,30.39,-9999.0,South,10.4,-,N/A,,Mostly Cloudy,180,2012-11-12 18:55:00
2:15 PM,64.4,55.4,73,30.38,-9999.0,South,12.7,17.3,N/A,,Mostly Cloudy,170,2012-11-12 19:15:00
2:35 PM,64.4,57.2,77,30.37,-9999.0,South,12.7,16.1,N/A,,Mostly Cloudy,190,2012-11-12 19:35:00
2:55 PM,64.4,55.4,73,30.37,-9999.0,South,12.7,20.7,N/A,,Scattered Clouds,190,2012-11-12 19:55:00
3:15 PM,62.6,55.4,77,30.37,-9999.0,South,11.5,16.1,N/A,,Mostly Cloudy,190,2012-11-12 20:15:00
3:35 PM,62.6,57.2,82,30.36,-9999.0,South,11.5,19.6,N/A,,Overcast,170,2012-11-12 20:35:00
3:55 PM,60.8,57.2,88,30.36,-9999.0,South,9.2,-,N/A,,Unknown,170,2012-11-12 20:55:00
4:15 PM,60.8,57.2,88,30.35,-9999.0,South,10.4,-,N/A,,Mostly Cloudy,180,2012-11-12 21:15:00
4:35 PM,60.8,57.2,88,30.35,-9999.0,South,11.5,-,N/A,,Overcast,180,2012-11-12 21:35:00
4:55 PM,60.8,57.2,88,30.34,-9999.0,South,10.4,16.1,N/A,,Mostly Cloudy,170,2012-11-12 21:55:00
5:15 PM,60.8,57.2,88,30.34,-9999.0,South,10.4,-,N/A,,Unknown,180,2012-11-12 22:15:00
5:35 PM,60.8,59.0,94,30.33,-9999.0,South,8.1,-,N/A,,Unknown,180,2012-11-12 22:35:00
5:55 PM,60.8,59.0,94,30.32,-9999.0,South,10.4,-,N/A,,Overcast,170,2012-11-12 22:55:00
6:15 PM,60.8,59.0,94,30.32,-9999.0,South,11.5,16.1,N/A,,Overcast,170,2012-11-12 23:15:00
6:35 PM,60.8,60.8,100,30.31,-9999.0,South,11.5,19.6,N/A,,Mostly Cloudy,170,2012-11-12 23:35:00
7:15 PM,60.8,59.0,94,30.31,-9999.0,South,8.1,-,N/A,,Unknown,180,2012-11-13 00:15:00
7:35 PM,60.8,59.0,94,30.30,-9999.0,South,8.1,17.3,N/A,,Unknown,190,2012-11-13 00:35:00
7:55 PM,60.8,59.0,94,30.30,-9999.0,South,10.4,17.3,N/A,,Unknown,180,2012-11-13 00:55:00
8:15 PM,60.8,59.0,94,30.29,-9999.0,South,12.7,17.3,N/A,,Unknown,170,2012-11-13 01:15:00
8:35 PM,60.8,60.8,100,30.29,-9999.0,South,10.4,20.7,N/A,,Mostly Cloudy,180,2012-11-13 01:35:00
8:55 PM,60.8,60.8,100,30.28,-9999.0,South,12.7,18.4,N/A,,Overcast,180,2012-11-13 01:55:00
9:15 PM,60.8,60.8,100,30.28,-9999.0,South,10.4,-,N/A,,Overcast,180,2012-11-13 02:15:00
9:35 PM,60.8,60.8,100,30.27,-9999.0,South,11.5,-,N/A,,Overcast,180,2012-11-13 02:35:00
9:55 PM,60.8,60.8,100,30.26,-9999.0,South,12.7,18.4,N/A,,Overcast,180,2012-11-13 02:55:00
10:15 PM,62.6,60.8,94,30.26,-9999.0,South,12.7,19.6,N/A,,Overcast,180,2012-11-13 03:15:00
10:35 PM,62.6,60.8,94,30.25,-9999.0,South,13.8,20.7,N/A,,Mostly Cloudy,180,2012-11-13 03:35:00
10:55 PM,62.6,60.8,94,30.24,-9999.0,South,12.7,18.4,N/A,,Mostly Cloudy,190,2012-11-13 03:55:00
11:15 PM,62.6,60.8,94,30.23,-9999.0,South,10.4,-,N/A,,Overcast,190,2012-11-13 04:15:00
11:35 PM,62.6,62.6,100,30.23,-9999.0,South,11.5,20.7,N/A,,Overcast,180,2012-11-13 04:35:00
11:55 PM,62.6,62.6,100,30.22,-9999.0,South,13.8,21.9,N/A,,Overcast,180,2012-11-13 04:55:00